DW1996 Weather Reports


Display with metric or nautical units.
time (UTC)temp
F
wind
direction
speed
MPH
gust
MPH
rain 1hr
in
rain 24hr
in
rain mn
in
humidity
%
barometer
mb
20260906223005 91 154 6.0 13.0 0.00 0.00 0.00 71 1009.2
20260906221601 91 93 3.0 12.0 0.00 0.00 0.00 73 1009.0
20260906220058 91 117 5.0 12.0 0.00 0.00 0.00 74 1009.1
20260906214557 90 143 4.0 15.0 0.00 0.00 0.00 74 1009.4
20260906213057 91 121 4.0 13.0 0.00 0.00 0.00 74 1009.6
20260906211600 91 99 4.0 12.0 0.00 0.00 0.00 74 1009.7
20260906210101 91 98 4.0 11.0 0.00 0.00 0.00 75 1009.7
20260906204601 90 111 2.0 7.0 0.00 0.00 0.00 75 1009.8
20260906203100 88 69 5.0 8.0 0.00 0.00 0.00 74 1010.0
20260906201551 85 85 1.0 4.0 0.00 0.00 0.00 75 1010.1
20260906200052 83 84 1.0 3.0 0.00 0.00 0.00 74 1010.4
20260906194551 82 250 0.0 7.0 0.00 0.00 0.00 77 1010.5
20260906193058 82 248 2.0 10.0 0.00 0.00 0.00 78 1010.8
20260906191549 81 247 8.0 17.0 0.00 0.00 0.00 76 1011.3
20260906190048 85 221 8.0 17.0 0.00 0.00 0.00 75 1011.1
20260906184548 86 138 2.0 7.0 0.00 0.00 0.00 79 1011.2
20260906183047 87 176 4.0 12.0 0.00 0.00 0.00 71 1011.2
20260906181550 86 190 8.0 12.0 0.00 0.00 0.00 63 1011.3
20260906174544 90 136 2.0 12.0 0.00 0.00 0.00 73 1011.7
20260906173042 92 84 7.0 13.0 0.00 0.00 0.00 71 1011.7
20260906171548 93 90 6.0 10.0 0.00 0.00 0.00 70 1012.0
20260906170043 90 85 3.0 14.0 0.00 0.00 0.00 68 1012.1
20260906164534 90 174 5.0 9.0 0.00 0.00 0.00 69 1012.2
20260906163033 88 196 0.0 7.0 0.00 0.00 0.00 71 1012.1
20260906161532 88 220 3.0 8.0 0.00 0.00 0.00 76 1012.1
20260906160035 88 50 8.0 10.0 0.00 0.00 0.00 80 1012.0
20260906154530 88 104 4.0 10.0 0.00 0.00 0.00 79 1012.0
20260906153030 89 74 6.0 11.0 0.00 0.00 0.00 78 1012.0
20260906151529 90 137 3.0 8.0 0.00 0.00 0.00 72 1011.9
20260906150029 91 200 5.0 10.0 0.00 0.00 0.00 70 1011.9
20260906144526 91 140 4.0 8.0 0.00 0.00 0.00 72 1011.9
20260906143022 90 84 0.0 4.0 0.00 0.00 0.00 75 1011.7
20260906141522 89 171 1.0 8.0 0.00 0.00 0.00 75 1011.7
20260906140016 88 174 4.0 6.0 0.00 0.00 0.00 77 1011.7
20260906134512 87 139 0.0 3.0 0.00 0.00 0.00 79 1011.5
20260906133009 86 195 0.0 0.0 0.00 0.00 0.00 83 1011.3
20260906131504 84 148 0.0 0.0 0.00 0.00 0.00 86 1011.2
20260906130001 83 179 0.0 0.0 0.00 0.00 0.00 88 1011.0
20260906124501 82 179 0.0 0.0 0.00 0.00 0.00 88 1010.8
20260906123001 81 179 0.0 0.0 0.00 0.00 0.00 88 1010.5
20260906121601 81 179 0.0 0.0 0.00 0.00 0.00 87 1010.3
20260906120100 81 179 0.0 0.0 0.00 0.00 0.00 87 1010.1
20260906114558 81 179 0.0 0.0 0.00 0.00 0.00 86 1009.9
20260906113057 81 179 0.0 0.0 0.00 0.00 0.00 86 1009.8
20260906111612 81 138 0.0 0.0 0.00 0.00 0.00 86 1009.7
20260906110057 82 138 0.0 0.0 0.00 0.00 0.00 87 1009.6
20260906104557 81 166 0.0 0.0 0.00 0.00 0.00 87 1009.6
20260906103058 81 166 0.0 0.0 0.00 0.00 0.00 87 1009.6
20260906101554 81 166 0.0 0.0 0.00 0.00 0.00 87 1009.7
20260906100056 82 166 0.0 0.0 0.00 0.00 0.00 87 1009.6
20260906094552 82 178 0.0 0.0 0.00 0.00 0.00 86 1009.5
20260906093051 82 178 0.0 0.0 0.00 0.00 0.00 86 1009.7
20260906091549 82 178 0.0 0.0 0.00 0.00 0.00 86 1009.8
20260906090053 82 178 0.0 1.0 0.00 0.00 0.00 86 1009.8
20260906084546 82 190 0.0 3.0 0.00 0.00 0.00 86 1010.0
20260906083050 82 191 0.0 4.0 0.00 0.00 0.00 85 1010.1
20260906081543 83 217 1.0 6.0 0.00 0.00 0.00 85 1010.1
20260906080044 83 178 0.0 3.0 0.00 0.00 0.00 85 1010.2
20260906074541 83 191 0.0 1.0 0.00 0.00 0.00 85 1010.4
20260906073039 83 168 0.0 4.0 0.00 0.00 0.00 85 1010.5
20260906071537 83 203 0.0 3.0 0.00 0.00 0.00 85 1010.6
20260906070037 83 176 0.0 4.0 0.00 0.00 0.00 85 1010.7
20260906064534 83 168 0.0 3.0 0.00 0.00 0.00 85 1010.9
20260906063032 83 202 0.0 0.0 0.00 0.00 0.00 84 1011.0
20260906061535 83 223 0.0 0.0 0.00 0.00 0.00 84 1011.2
20260906060033 84 182 0.0 4.0 0.00 0.00 0.00 84 1011.2
20260906054541 84 196 1.0 5.0 0.00 0.00 0.00 84 1011.1
20260906053026 84 209 0.0 3.0 0.00 0.00 0.00 83 1011.4
20260906051523 84 198 0.0 0.0 0.00 0.00 0.00 82 1011.7
20260906050021 84 198 0.0 0.0 0.00 0.00 0.00 82 1011.8
20260906044520 84 198 0.0 0.0 0.00 0.00 0.00 82 1011.7
20260906043021 84 198 0.0 2.0 0.00 0.00 0.00 82 1011.6
20260906041519 85 198 0.0 2.0 0.00 0.00 0.00 81 1011.7
20260906040029 85 198 0.0 3.0 0.00 0.00 0.00 81 1011.6
20260906034519 85 195 1.0 5.0 0.00 0.00 0.00 81 1011.3
20260906033037 85 179 2.0 8.0 0.00 0.00 0.00 81 1011.2
20260906031516 85 150 2.0 7.0 0.00 0.00 0.00 80 1011.1
20260906030015 85 207 2.0 9.0 0.00 0.00 0.00 80 1011.1
20260906024515 85 173 2.0 10.0 0.00 0.00 0.00 80 1011.1
20260906023015 86 159 2.0 10.0 0.00 0.00 0.00 79 1010.6
20260906021514 86 161 3.0 8.0 0.00 0.00 0.00 79 1010.6
20260906020012 86 179 5.0 10.0 0.00 0.00 0.00 79 1010.2
20260906014512 86 134 5.0 13.0 0.00 0.00 0.00 78 1010.1
20260906013122 86 161 5.0 11.0 0.00 0.00 0.00 78 1009.9
20260906011515 86 159 6.0 15.0 0.00 0.00 0.00 77 1009.9
20260906010014 87 168 5.0 14.0 0.00 0.00 0.00 77 1009.7
20260906004510 87 134 9.0 16.0 0.00 0.00 0.00 76 1009.4
20260906003009 87 184 8.0 17.0 0.00 0.00 0.00 76 1009.2
20260906001507 88 162 7.0 18.0 0.00 0.00 0.00 76 1009.0
20260906000007 88 125 8.0 18.0 0.00 0.00 0.00 75 1008.7
20260905234507 89 130 10.0 18.0 0.00 0.00 0.00 72 1008.5
20260905233006 90 137 6.0 14.0 0.00 0.00 0.00 71 1008.5
20260905231506 90 156 7.0 19.0 0.00 0.00 0.00 69 1008.6
20260905230005 91 140 8.0 16.0 0.00 0.00 0.00 70 1008.7
20260905224504 91 149 10.0 17.0 0.00 0.00 0.00 66 1008.6